Location: Melbourne
(37.8170°S, 144.9670°E)
Time: 09:11:49
(UTC+11:00)

Explorer 11/Cluster Stage 4 - Visible Passes

Search period start: 25 February 2017 00:00
Search period end: 07 March 2017 00:00
Orbit: 467 x 1263 km, 28.8° (Epoch: 23 February)

Date Brightness Start Highest point End Pass type
(mag) Time Alt. Az. Time Alt. Az. Time Alt. Az.
25 Feb 8.0 21:32:45 10° WNW 21:36:42 23° N 21:38:36 20° NNE visible
26 Feb 8.1 21:23:09 10° WNW 21:26:43 20° NNW 21:29:02 16° NNE visible
27 Feb 8.2 21:13:40 10° NW 21:16:45 17° NNW 21:19:30 12° NNE visible
28 Feb 8.4 21:04:20 10° NW 21:06:46 14° NNW 21:09:26 10° NNE visible
01 Mar 8.5 20:55:23 10° NW 20:56:48 11° NNW 20:58:17 10° N visible
